Regional Weather Roundup
Issued by NWS Newport/Morehead, NC

Current Version | Previous Version | Text Only | Print | Product List | Glossary On
Versions: 1 2 3 4 5 6 7 8 9 10 11 12 13 14 15 16 17 18 19 20 21 22 23 24 25 26 27 28 29 30 31 32 33 34 35 36 37 38 39 40 41 42 43 44 45 46 47 48 49 50
000 ASUS42 KMHX 041713 RWRMHX WEATHER ROUNDUP FOR EASTERN NORTH CAROLINA NATIONAL WEATHER SERVICE NEWPORT/MOREHEAD CITY NC 100 PM EDT SAT JUL 04 2015 NOTE: "FAIR" INDICATES FEW OR NO CLOUDS BELOW 12,000 FEET WITH NO SIGNIFICANT WEATHER AND/OR OBSTRUCTIONS TO VISIBILITY NCZ015>017-031-032-045>047-102-103-041800- NORTH COAST CITY SKY/WX TMP DP RH WIND PRES REMARKS EDENTON N/A 86 71 60 SW12G18 29.95R ELIZABETH CITY MOSUNNY 85 71 63 SW13 29.94S KITTY HAWK MOSUNNY 89 70 53 W12G18 29.94S MANTEO MOSUNNY 85 70 60 W16G24 29.95S $$ NCZ045>047-081-094-103-104-041800- CENTRAL COAST CITY SKY/WX TMP DP RH WIND PRES REMARKS FRISCO MOSUNNY 83 72 69 SW13G22 29.99S SWANQUARTER N/A 88 N/A N/A SW18 29.94S $$ NCZ095-097-098-100-101-041800- SOUTHERN COAST CITY SKY/WX TMP DP RH WIND PRES REMARKS BEAUFORT MOSUNNY 84 72 67 SW18G24 30.02R CEDAR ISLAND N/A 90 N/A N/A S14G24 30.03S JACKSONVILLE CLOUDY 86 67 52 W13G29 30.01S PINEY ISLAND MOSUNNY N/A N/A N/A SW24G31 30.00R WILMINGTON PTSUNNY 90 69 50 W17G28 30.03S $$ NCZ011>013-027>030-043-044-078>080-089-090>093-098-041800- COASTAL PLAIN CITY SKY/WX TMP DP RH WIND PRES REMARKS AHOSKIE MOSUNNY N/A N/A N/A CALM 29.95S CLINTON MOSUNNY 85 71 60 SW13G23 30.02R ELIZABETHTOWN PTSUNNY 84 68 59 SW13G18 30.03F GOLDSBORO MOSUNNY 87 71 58 SW18G24 29.96S GREENVILLE MOSUNNY 88 72 58 W8G20 29.98F HAVELOCK PTSUNNY 88 68 51 SW16G28 30.01R KENANSVILLE PTSUNNY 86 67 53 SW9G20 30.01S KINSTON MOSUNNY 88 70 55 SW17G24 29.99S NEW BERN PTSUNNY 87 69 54 W13G21 30.00S RICHLANDS CLOUDY 86 68 54 SW12 30.02R ROCKY MOUNT PTSUNNY 85 72 65 S13 29.96F WASHINGTON MOSUNNY 86 71 60 SW14G25 29.97S WHITEVILLE CLOUDY 86 70 60 SW7 30.04S $$ AMZ130-135-150-152-154-156-158-170-250-252-270-ANZ085-086-088-633-658-670-041800- MARINE OBSERVATIONS STATION/POSITION TIME TEMP WIND PRES WAVE SWELL AIR SEA DIR/SP/G HT/PER HT/PER (UTC) (F) (DEG/KT/KT) (MB) (FT/S) (FT/S) CHESAPEAKE LIGHT 1700 78 290/ 10/ 11 1013.9 64 E VA BEACH 1650 77 76 250/ 14/ 16 1013.3 6/ 8 5/ 8 DUCK 1600 81 67 250/ 17/ 24 N/A 2 E DUCK 1611 76 N/A 2/ 9 OREGON INLET 1600 83 80 240/ 16/ 19 1014.4 13E OREGON INLT 1700 70 N/A 4/ 7 2/15 HATTERAS CG 1600 81 77 220/ 13/ 18 1015.3 DIAMOND BUOY 1650 81 81 230/ 23/ 27 1015.4 6/ 7 2/14 CAPE LOOKOUT 1700 83 230/ 13/ 19 1016.7 BEAUFORT LAB 1600 84 80 230/ 9/ 16 1015.7 30 SE NEW RVR IN 1608 81 80 240/ 17/ 23 1017.4 27 SE WRIGHTSVLE 1600 80 240/ 16/ 19 N/A 5 SE WRIGHTSVLE 1608 80 78 220/ 16/ 19 1017.0 225 S CAPE HAT 1650 82 80 240/ 12/ 12 1021.5 6/ 6 5/ 6 41 SE CHARLESTON 1650 81 82 230/ 12/ 14 1018.5 4/ 6 3/10 $$

USA.gov is the U.S. government's official web portal to all federal, state and local government web resources and services.